This demonstration page uses our WeatherBlox Daily Observations layout. Learn more.

Left ArrowRight Arrow

Hourly Observations for December 21, 2021

Temp ( °F °C ) Dew Point ( °F °C ) Humidity (%) Winds ( mph kmh ) Pressure ( in mb ) Visibility ( mi km ) Precip ( " mm )
12:53 am 00:53 Clear 1 -17.2 -4 -20 79 79 SW 10 17 30.09 1019 10 16 0.00 0.00
1:53 am 01:53 Clear -5 -20.6 -10 -23.3 79 79 WSW 9 15 30.10 1019 10 16 0.00 0.00
2:53 am 02:53 Clear -4 -20 -8 -22.2 83 83 W 8 13 30.08 1019 10 16 0.00 0.00
3:53 am 03:53 Clear 0 -17.8 -3 -19.4 87 87 WSW 13 20 30.05 1018 10 16 0.00 0.00
4:53 am 04:53 Clear 3 -16.1 -1 -18.3 83 83 SW 15 24 30.01 1016 10 16 0.00 0.00
5:53 am 05:53 Clear 7 -13.9 3 -16.1 84 84 SW 13 20 30.00 1016 10 16 0.00 0.00
6:53 am 06:53 Mostly Cloudy 6 -14.4 2 -16.7 83 83 SW 10 17 30.00 1016 10 16 0.00 0.00
7:53 am 07:53 Clear 6 -14.4 3 -16.1 87 87 VRB 7 11 30.00 1016 10 16 0.00 0.00
8:53 am 08:53 Sunny 12 -11.1 7 -13.9 80 80 W 7 11 29.99 1016 10 16 0.00 0.00
9:53 am 09:53 Sunny 20 -6.7 13 -10.6 74 74 W 9 15 29.99 1016 10 16 0.00 0.00
10:53 am 10:53 Partly Cloudy 23 -5 14 -10 68 68 SW 13 20 29.96 1015 10 16 0.00 0.00
11:53 am 11:53 Cloudy 30 -1.1 17 -8.3 58 58 WSW 12 19 29.95 1014 10 16 0.00 0.00
12:53 pm 12:53 Cloudy 28 -2.2 17 -8.3 63 63 WSW 6 9 29.93 1013 10 16 0.00 0.00
1:53 pm 13:53 Mostly Cloudy 30 -1.1 18 -7.8 61 61 W 5 7 29.91 1013 10 16 0.00 0.00
2:53 pm 14:53 Mostly Sunny 34 1.1 17 -8.3 50 50 WSW 12 19 29.87 1012 10 16 0.00 0.00
3:53 pm 15:53 Partly Cloudy 32 0 18 -7.8 56 56 W 7 11 29.85 1011 10 16 0.00 0.00
4:53 pm 16:53 Clear 25 -3.9 16 -8.9 69 69 SW 8 13 29.83 1010 10 16 0.00 0.00
5:53 pm 17:53 Clear 24 -4.4 15 -9.4 68 68 WNW 7 11 29.82 1010 10 16 0.00 0.00
6:53 pm 18:53 Clear 23 -5 14 -10 68 68 NW 6 9 29.82 1010 10 16 0.00 0.00
7:53 pm 19:53 Clear 23 -5 16 -8.9 74 74 W 3 6 29.81 1010 10 16 0.00 0.00
8:53 pm 20:53 Clear 24 -4.4 17 -8.3 75 75 SW 9 15 29.80 1009 10 16 0.00 0.00
9:53 pm 21:53 Clear 25 -3.9 20 -6.7 81 81 SW 10 17 29.78 1009 10 16 0.00 0.00
10:53 pm 22:53 Clear 20 -6.7 17 -8.3 89 89 SW 12 19 29.78 1009 10 16 0.00 0.00
11:53 pm 23:53 Clear 20 -6.7 17 -8.3 89 89 WSW 5 7 29.77 1008 10 16 0.00 0.00

Powered by AerisWeather